OBJECT J, 44887

Orbit data source: Space-Track

You're viewing an Uncataloged Satellite

Recently launched and/or uncataloged satellites may have evolving metadata. Metadata may include but not limited to: Owner, Maufacturer, Bus, Motor, and Mission.

OBJECT J, 44887 is a satellite in SSO that was launched on Fri, 20 Dec 2019 UTC launched from the Taiyaun Space Center, China (TSC). Unknown objects in Earth's orbit typically refer to objects detected orbiting the Earth but have not yet been identified or cataloged. These objects could be anything from previously untracked satellites, spent rocket stages, debris from satellite collisions, or even natural meteoroids temporarily captured by Earth's gravity.

Loading next visibility...
Identifier
44887, 2019-093J
Orbit
SSO
Country
Flag of TBDTBD
Related business
Manufacturer
SAST
Mission
Non-operational spacecraft
Bus & Motor
Unknown
Mass
~200 kg wet, ~200 kg dry
Launch date (UTC)
2019-12-20 (6 years ago)
Launch vehicle
Unknown
Launch site
Taiyaun Space Center, China (TSC)
Object type
Unknown
Shape & HBR
Cyl, Unknown HBR
Radar Cross Section
7.858 m², Medium (>0.1 m² and < 1m²)

Expand to show TLE details & history
Last TLE update: 5 days ago

TLE from 5 days ago
0 OBJECT J
1 44887U 19093J   26155.30146369  .00001666  00000-0  16893-3 0  9993
2 44887  97.7915 239.8628 0013866 113.9658 246.3014 14.92178189350060
Epoch: 2026-06-04T07:14Z
TLE epoch observation values (Epoch: 2026-06-04T07:14:06.462Z)
Latitude
-0.00009°
Longitude
-121.4118°
Altitude
598.083 km
Speed
7.559 km/s
True Right ascension
15h 59m 27s
True Declination
0° 00' 00"
Sunlit
Object was in full shadow at epoch
Visualization orbit readout
Latitude
Unknown
Longitude
Unknown
Altitude
Unknown
Speed
Unknown
Apparent Right ascension
Unknown
Apparent Declination
Unknown
Sunlit
N/A
Visualization observer readout
Local Sidereal Time
00:36:52
Azimuth
Unknown
Elevation
Unknown
Doppler factor
Unknown
Orbital elements
Apogee altitude
597.824 km
Perigee altitude
578.505 km
Semi-major axis
6,966.302 km
Eccentricity
0.00139
Inclination
97.7915°
RAAN
239.8628°
Arg. of periapsis
113.9658°
True anomaly
246.15601°
Mean anomaly
246.3014°
Eccentric anomaly
246.22869°
Mean motion
3.73284 °/min
Orbital period
96.44 mins
BSTAR
0.00016893
Loading maneuver chart data...
Computing Atmospheric mass density...
Loading historical data...
Loading historical data...
Loading historical data...
Loading historical data...
Loading historical data...
Loading historical data...
Loading historical data...

Documentation

Showing up to 5 results
|